[[{"header":{"parameterUnit":"m.s-1","parameterCategory":1,"la1":30.2991,"la2":30.254,"lo1":-89.0895,"lo2":-89.0444,"dy":0.0017,"dx":0.0017,"nx":28,"ny":28,"refTime":"2023-10-22T03:00:00:Z","depth":0,"parameterNumber":2,"parameterNumberName":"U-component_of_WINDS"},"data":[0,0,0,0,0,0,0,0,0,0,0,0,0,0,0,0,0,0,0,0,0,0,0,0,0,0,0,0,0,0,0,0,0,0,0,0,0,0,0,0,0,0,0,0,0,0,0,0,0,0,0,0,0,0,0,0,0,0,1.3628,1.3628,0,1.3661,1.3661,1.3662,1.3614,1.3612,1.361,1.3609,1.3644,1.3646,1.3649,0,0,0,0,0,0,0,0,0,0,0,0,0,1.3523,1.3526,1.3628,1.3628,1.3628,1.3661,1.3661,1.3662,1.3614,1.3612,1.361,1.3608,1.3643,1.3646,1.3649,0,0,0,0,0,0,0,0,0,0,0,0,0,1.3564,1.3526,1.3627,1.3608,1.3607,1.3661,1.3661,1.3662,1.3615,1.3612,1.3609,1.3607,1.3642,1.3646,1.365,1.3724,0,0,1.3661,1.3663,0,0,0,0,0,0,0,0,1.3562,1.3568,1.3611,1.361,1.3608,1.3631,1.3638,1.3683,1.3615,1.3612,1.3609,1.3606,1.3642,1.3645,1.3657,1.3725,1.3727,1.3661,1.3664,1.3665,1.3666,0,0,0,0,0,0,0,1.3559,1.3566,1.3641,1.3611,1.361,1.3599,1.3602,1.3646,1.3641,1.3612,1.3608,1.3613,1.364,1.3654,1.3658,1.3727,1.3661,1.3665,1.3667,1.3668,1.3859,1.3862,0,0,0,0,0,0,1.3558,1.3564,1.364,1.3642,1.3578,1.3603,1.3606,1.3626,1.364,1.364,1.3615,1.3611,1.3648,1.3653,1.3659,1.3747,1.3665,1.3669,1.3671,1.3857,1.386,1.3863,0,0,0,0,0,0,1.3556,1.3566,1.3638,1.3602,1.361,1.3607,1.363,1.3628,1.3641,1.3642,1.3641,1.363,1.3647,1.3653,1.3708,1.3748,1.3671,1.3674,1.3853,1.3858,1.3861,1.3924,0,0,0,0,0,0,1.3553,1.3565,1.3593,1.3603,1.3613,1.3687,1.3633,1.3631,1.3648,1.3642,1.3656,1.3655,1.3645,1.3703,1.3712,1.3751,1.3677,1.385,1.3855,1.386,1.3919,1.393,1.394,0,0,0,0,0,1.355,1.3609,1.3595,1.3604,1.3647,1.3689,1.3695,1.3682,1.3651,1.3679,1.368,1.3655,1.3742,1.3709,1.3719,1.376,1.3847,1.3854,1.386,1.3914,1.3928,1.394,0,0,0,0,0,0,1.3604,1.361,1.3594,1.3658,1.3674,1.3681,1.3716,1.3697,1.3721,1.3715,1.3698,1.3701,1.376,1.3765,1.3728,1.3833,1.3789,1.3798,1.3827,1.3841,1.3851,1.3849,1.368,0,0,0,0,0,1.3623,1.3657,1.366,1.3717,1.3725,1.372,1.3738,1.3726,1.3741,1.3748,1.3753,1.3769,1.38,1.382,1.3849,1.3919,1.3922,1.3953,1.3963,1.3972,1.398,1.4018,1.4032,1.3884,1.3884,1.3883,0,0,1.3664,1.3671,1.3693,1.3728,1.3738,1.3774,1.3726,1.3765,1.3791,1.3754,1.3806,1.381,1.3827,1.389,1.3918,1.3896,1.4021,1.398,1.3987,1.399,1.4026,1.404,1.4053,1.3888,1.3887,1.3886,0,0,1.3756,1.3764,1.3813,1.3824,1.3841,1.3837,1.3849,1.3859,1.3861,1.3913,1.3886,1.3917,1.397,1.3984,1.3998,1.4095,1.4073,1.4105,1.4161,1.4198,1.421,1.422,1.4256,1.4269,1.4113,1.4113,1.4113,0,1.3804,1.3856,1.384,1.3881,1.3898,1.3866,1.3915,1.3927,1.3952,1.3965,1.394,1.4007,1.4016,1.4082,1.4106,1.4118,1.4131,1.4104,1.421,1.422,1.4229,1.4263,1.4276,1.4117,1.4116,1.4116,1.4116,0,1.3914,1.3951,1.3988,1.4013,1.4034,1.4079,1.4071,1.4093,1.408,1.4079,1.4133,1.4143,1.4173,1.4188,1.4175,1.4253,1.4239,1.4212,1.4168,1.4247,1.4279,1.4291,1.4122,1.4121,1.412,1.4119,0,0,1.4041,1.4057,1.4071,1.4082,1.4099,1.4127,1.4171,1.42,1.4221,1.4239,1.4276,1.4323,1.4298,1.4314,1.4303,1.4336,1.4414,1.4306,1.4306,1.4326,1.45,1.452,1.4535,1.4399,1.4402,1.4404,1.4499,0,1.4132,1.4208,1.4196,1.4269,1.4303,1.4274,1.4312,1.4327,1.4327,1.4356,1.4357,1.439,1.4355,1.4365,1.4396,1.4398,1.4449,1.4391,1.4434,1.4436,1.4431,1.4552,1.4573,1.4662,1.4511,1.4513,1.4515,0,1.4249,1.4273,1.435,1.4361,1.4375,1.441,1.4436,1.4464,1.4481,1.4479,1.4497,1.448,1.4525,1.448,1.4542,1.4502,1.4519,1.4523,1.4526,1.453,1.448,1.4559,1.469,1.4704,1.4534,1.4532,1.4531,0,1.4334,1.4385,1.4437,1.4448,1.4463,1.4488,1.4496,1.4509,1.4528,1.4552,1.4564,1.4592,1.4608,1.463,1.4622,1.459,1.4686,1.464,1.4686,1.4686,1.4707,1.4706,1.4843,1.4718,1.4718,1.4717,1.4717,0,1.4438,1.4487,1.4476,1.4508,1.4562,1.4548,1.4601,1.4605,1.4618,1.4651,1.4627,1.4659,1.4646,1.4677,1.4671,1.4723,1.473,1.473,1.4728,1.4732,1.4733,1.4743,1.4737,1.4721,1.472,1.4719,1.4719,0,1.4542,1.4537,1.4592,1.4602,1.4606,1.4645,1.4653,1.4684,1.4683,1.4725,1.4734,1.4732,1.4768,1.4762,1.4801,1.4797,1.4862,1.4852,1.4857,1.4855,1.4901,1.4897,1.505,1.507,1.4932,1.4933,1.4934,0,1.4609,1.4645,1.4659,1.4679,1.4689,1.4722,1.4741,1.4729,1.475,1.4772,1.48,1.4833,1.4859,1.4917,1.492,1.495,1.4941,1.4993,1.4945,1.4949,1.4942,1.494,1.4944,1.5002,1.5004,1.5005,1.5006,0,1.4728,1.4723,1.4752,1.478,1.4803,1.4825,1.4844,1.4862,1.4851,1.4876,1.4912,1.4933,1.4973,1.5006,1.5035,1.5043,1.5023,1.5021,1.5033,1.5038,1.5039,1.504,1.4883,1.5017,1.5016,1.5015,1.5015,1.5014,1.4815,1.4846,1.4861,1.4894,1.4907,1.4926,1.4955,1.4958,1.4987,1.5019,1.501,1.5051,1.5067,1.5103,1.5115,1.5147,1.5128,1.5145,1.515,1.5154,1.516,1.5034,1.5152,1.5152,1.5151,1.5151,1.5151,0,1.4933,1.4941,1.4971,1.4999,1.5025,1.5004,1.5024,1.5048,1.5084,1.51,1.5127,1.5168,1.5201,1.5207,1.5238,1.5263,1.5254,1.5271,1.5269,1.5272,1.5175,1.5162,1.5277,1.5277,1.5277,1.5277,1.5277,1.5277,1.4997,1.5049,1.5047,1.5106,1.5114,1.5154,1.5167,1.5185,1.5198,1.5245,1.5273,1.5276,1.5288,1.532,1.535,1.535,1.5363,1.5384,1.5381,1.5291,1.5278,1.5266,1.5253,1.5387,1.5387,1.5475,1.5476,1.5476]},{"header":{"parameterUnit":"m.s-1","parameterCategory":1,"la1":30.2991,"la2":30.254,"lo1":-89.0895,"lo2":-89.0444,"dy":0.0017,"dx":0.0017,"nx":28,"ny":28,"refTime":"2023-10-22T03:00:00:Z","depth":0,"parameterNumber":3,"parameterNumberName":"V-component_of_WINDS"},"data":[0,0,0,0,0,0,0,0,0,0,0,0,0,0,0,0,0,0,0,0,0,0,0,0,0,0,0,0,0,0,0,0,0,0,0,0,0,0,0,0,0,0,0,0,0,0,0,0,0,0,0,0,0,0,0,0,0,0,-0.1364,-0.1364,0,-0.1337,-0.1337,-0.1336,-0.1347,-0.1347,-0.1348,-0.1349,-0.132,-0.1318,-0.1317,0,0,0,0,0,0,0,0,0,0,0,0,0,-0.1426,-0.1424,-0.1365,-0.1364,-0.1364,-0.1337,-0.1337,-0.1336,-0.1347,-0.1347,-0.1348,-0.1349,-0.132,-0.1318,-0.1317,0,0,0,0,0,0,0,0,0,0,0,0,0,-0.1399,-0.1424,-0.1365,-0.1366,-0.1366,-0.1337,-0.1336,-0.1336,-0.1346,-0.1347,-0.1348,-0.1349,-0.132,-0.1319,-0.1316,-0.1285,0,0,-0.131,-0.1309,0,0,0,0,0,0,0,0,-0.14,-0.1396,-0.1366,-0.1366,-0.1365,-0.1346,-0.1347,-0.1319,-0.1346,-0.1354,-0.1349,-0.135,-0.1328,-0.1325,-0.1318,-0.1283,-0.1282,-0.131,-0.1309,-0.1308,-0.1307,0,0,0,0,0,0,0,-0.1402,-0.1398,-0.1354,-0.1365,-0.1365,-0.1367,-0.1365,-0.1342,-0.1336,-0.1353,-0.1354,-0.135,-0.1328,-0.132,-0.1317,-0.1282,-0.131,-0.1308,-0.1307,-0.1306,-0.122,-0.1219,0,0,0,0,0,0,-0.1404,-0.1399,-0.1354,-0.1353,-0.1385,-0.1366,-0.1362,-0.1351,-0.1336,-0.1334,-0.135,-0.1351,-0.1323,-0.1319,-0.1316,-0.1278,-0.1308,-0.1306,-0.1305,-0.1221,-0.122,-0.1218,0,0,0,0,0,0,-0.1405,-0.14,-0.1356,-0.1376,-0.1371,-0.1364,-0.1351,-0.135,-0.1342,-0.1333,-0.1332,-0.1343,-0.1323,-0.1319,-0.1292,-0.1277,-0.1305,-0.1303,-0.1222,-0.122,-0.1219,-0.1201,0,0,0,0,0,0,-0.1407,-0.14,-0.1388,-0.1376,-0.1369,-0.1332,-0.135,-0.1349,-0.1339,-0.134,-0.1326,-0.1325,-0.1324,-0.1295,-0.129,-0.1274,-0.1302,-0.1223,-0.1221,-0.122,-0.1202,-0.1199,-0.1195,0,0,0,0,0,-0.1409,-0.1384,-0.1388,-0.1382,-0.1354,-0.1332,-0.1328,-0.1327,-0.1338,-0.1325,-0.1319,-0.1325,-0.1279,-0.1293,-0.1287,-0.127,-0.1224,-0.1222,-0.122,-0.1204,-0.1199,-0.1195,0,0,0,0,0,0,-0.1395,-0.1383,-0.1386,-0.1357,-0.1345,-0.1333,-0.1318,-0.1322,-0.1307,-0.1309,-0.1309,-0.1305,-0.1278,-0.1272,-0.1286,-0.1239,-0.1254,-0.125,-0.1244,-0.1239,-0.1235,-0.1237,-0.13,0,0,0,0,0,-0.1388,-0.1371,-0.1361,-0.1336,-0.133,-0.1325,-0.1315,-0.1315,-0.1303,-0.1298,-0.1291,-0.1278,-0.1261,-0.125,-0.1234,-0.1202,-0.1199,-0.1188,-0.1184,-0.1181,-0.1178,-0.116,-0.1155,-0.1211,-0.1211,-0.1211,0,0,-0.1374,-0.1365,-0.1355,-0.1333,-0.1324,-0.1306,-0.1321,-0.1301,-0.1287,-0.1295,-0.127,-0.1264,-0.125,-0.1221,-0.1207,-0.1215,-0.1162,-0.1178,-0.1176,-0.1174,-0.1157,-0.1152,-0.1147,-0.1209,-0.1209,-0.1209,0,0,-0.134,-0.1331,-0.1309,-0.13,-0.1287,-0.1283,-0.1278,-0.1266,-0.1262,-0.1237,-0.1242,-0.1226,-0.1196,-0.1186,-0.1178,-0.1139,-0.1144,-0.1134,-0.1114,-0.1097,-0.1093,-0.1089,-0.1075,-0.107,-0.1131,-0.1131,-0.1131,0,-0.1324,-0.1297,-0.1297,-0.1277,-0.1267,-0.1274,-0.1251,-0.1242,-0.1224,-0.1217,-0.1225,-0.1188,-0.118,-0.1148,-0.1139,-0.1131,-0.1125,-0.1135,-0.1094,-0.109,-0.1086,-0.1072,-0.1067,-0.113,-0.113,-0.113,-0.113,0,-0.1278,-0.1259,-0.1243,-0.1225,-0.1214,-0.1192,-0.1189,-0.1177,-0.1179,-0.1175,-0.1148,-0.1138,-0.112,-0.1113,-0.1114,-0.1081,-0.1086,-0.1094,-0.1109,-0.1079,-0.1067,-0.1062,-0.1128,-0.1128,-0.1129,-0.1129,0,0,-0.1233,-0.1216,-0.121,-0.1202,-0.1188,-0.1173,-0.1152,-0.1134,-0.1124,-0.1111,-0.1093,-0.1068,-0.1075,-0.1065,-0.1066,-0.1051,-0.102,-0.1061,-0.106,-0.1053,-0.0983,-0.0977,-0.0971,-0.1024,-0.1023,-0.1022,-0.0984,0,-0.1197,-0.116,-0.1159,-0.1125,-0.1108,-0.1114,-0.1096,-0.1085,-0.108,-0.1065,-0.106,-0.1042,-0.1054,-0.1047,-0.1033,-0.1027,-0.1006,-0.103,-0.1007,-0.1006,-0.1009,-0.0964,-0.0957,-0.0922,-0.0979,-0.0978,-0.0978,0,-0.1149,-0.1135,-0.1099,-0.1087,-0.108,-0.1063,-0.1047,-0.1032,-0.102,-0.1018,-0.1007,-0.1009,-0.0987,-0.1004,-0.0973,-0.0989,-0.098,-0.0976,-0.0974,-0.0972,-0.0989,-0.0959,-0.091,-0.0905,-0.097,-0.0971,-0.0971,0,-0.1119,-0.1091,-0.1066,-0.1059,-0.1045,-0.1033,-0.1026,-0.1015,-0.1005,-0.099,-0.0983,-0.0967,-0.0958,-0.0945,-0.0942,-0.0954,-0.0912,-0.0928,-0.0909,-0.0909,-0.0899,-0.09,-0.0847,-0.0894,-0.0895,-0.0895,-0.0895,0,-0.1078,-0.1056,-0.1052,-0.1037,-0.1012,-0.1012,-0.0987,-0.0982,-0.0972,-0.0955,-0.096,-0.0944,-0.0942,-0.0926,-0.0924,-0.0899,-0.0895,-0.0893,-0.0892,-0.0892,-0.0892,-0.0885,-0.0887,-0.0893,-0.0894,-0.0894,-0.0894,0,-0.104,-0.1037,-0.101,-0.0999,-0.0996,-0.0978,-0.0968,-0.0953,-0.0949,-0.0928,-0.0923,-0.0917,-0.0898,-0.0895,-0.0873,-0.0872,-0.0842,-0.0844,-0.0846,-0.0846,-0.0827,-0.0829,-0.0768,-0.0759,-0.0812,-0.0812,-0.0812,0,-0.1014,-0.0997,-0.0984,-0.0973,-0.0966,-0.0949,-0.0938,-0.0937,-0.0926,-0.0911,-0.0897,-0.0879,-0.0864,-0.0834,-0.0827,-0.081,-0.0812,-0.0792,-0.0809,-0.0809,-0.0811,-0.0812,-0.081,-0.0788,-0.0788,-0.0787,-0.0787,0,-0.0968,-0.0967,-0.0951,-0.0935,-0.0922,-0.0909,-0.0897,-0.0888,-0.0886,-0.0872,-0.0853,-0.0842,-0.0819,-0.08,-0.0783,-0.0777,-0.0781,-0.0781,-0.0776,-0.0775,-0.0776,-0.0775,-0.0836,-0.0783,-0.0783,-0.0783,-0.0783,-0.0784,-0.0934,-0.0919,-0.0908,-0.089,-0.0881,-0.087,-0.0855,-0.0849,-0.0833,-0.0815,-0.0816,-0.0794,-0.0782,-0.076,-0.0752,-0.0735,-0.0742,-0.0734,-0.0732,-0.073,-0.0728,-0.0779,-0.0732,-0.0733,-0.0733,-0.0733,-0.0733,0,-0.0888,-0.0881,-0.0865,-0.0847,-0.0833,-0.0839,-0.0826,-0.0814,-0.0795,-0.0784,-0.0769,-0.0747,-0.0729,-0.0721,-0.0704,-0.0692,-0.0693,-0.0687,-0.0688,-0.0686,-0.0724,-0.073,-0.0686,-0.0686,-0.0686,-0.0686,-0.0686,-0.0686,-0.0862,-0.0837,-0.0835,-0.0805,-0.0798,-0.0777,-0.0769,-0.0758,-0.0749,-0.0724,-0.0709,-0.0705,-0.0695,-0.0676,-0.066,-0.0659,-0.0651,-0.0644,-0.0643,-0.0678,-0.0683,-0.0688,-0.0693,-0.0643,-0.0643,-0.0607,-0.0606,-0.0606]}]]